Regional Weather Roundup
Issued by NWS Huntsville, AL

Home | Current Version | Previous Version | Text Only | Print | Product List | Glossary On
Versions: 1 2 3 4 5 6 7 8 9 10 11 12 13 14 15 16 17 18 19 20 21 22 23 24 25 26 27 28 29 30 31 32 33 34 35 36 37 38 39 40 41 42 43 44 45 46 47 48 49 50
000
ASUS44 KHUN 030410
RWRHUN

WEATHER ROUNDUP FOR THE TENNESSEE VALLEY
NATIONAL WEATHER SERVICE HUNTSVILLE AL
1100 PM CDT WED SEP 02 2015

ALZ001>004-030500-
NORTHWEST ALABAMA

CITY           SKY/WX    TMP DP  RH WIND       PRES   REMARKS
COURTLAND HCN    N/A     73 N/A N/A CALM        N/A
BANKHEAD NF      N/A     73  73 100 CALM        N/A
RUSSELLVILLE     N/A     73 N/A N/A MISG        N/A
SHOALS AIRPORT CLOUDY    75  71  87 CALM      30.04S
SHOALS TVA RES   N/A     73 N/A N/A MISG        N/A
$$

ALZ005>007-016-030500-
NORTH CENTRAL ALABAMA

CITY           SKY/WX    TMP DP  RH WIND       PRES   REMARKS
CULLMAN AG STN   N/A     73 N/A N/A CALM        N/A
DECATUR AP     MOCLDY    73  72  96 CALM      30.03S FOG
HUNTSVILLE AP  CLOUDY    76  72  87 N3        30.03S
HUN NWS/UAH      N/A     77  71  81 SE1         N/A
MERIDIANVILLE  MOCLDY    73  70  88 CALM      30.04S
REDSTONE ARSN  CLOUDY    74  73  95 N1        30.02F
VINEMONT AP    FAIR      72  72 100 CALM      30.07S FOG
$$

ALZ008>010-030500-
NORTHEAST ALABAMA

CITY           SKY/WX    TMP DP  RH WIND       PRES   REMARKS
ALBERTVILLE    CLOUDY    73  73 100 CALM      30.04S
FORT PAYNE     MOCLDY    72  70  94 CALM      30.04S
SCOTTSBORO AP  MOCLDY    73  73 100 CALM      30.03F
SCOTTSBORO HCN   N/A     73 N/A N/A MISG        N/A
VALLEY HEAD      N/A     72 N/A N/A MISG        N/A
$$

TNZ076-096-097-030500-
SOUTHEASTERN MIDDLE TENNESSEE

CITY           SKY/WX    TMP DP  RH WIND       PRES   REMARKS
TULLAHOMA      CLEAR     73  70  88 CALM      30.05F
WINCHESTER     CLEAR     73  72  94 CALM      30.05S
$$

...SURROUNDING SITES...

CITY           SKY/WX    TMP DP  RH WIND       PRES   REMARKS
ATLANTA        MOCLDY    79  69  71 NW3       30.03F
ANNISTON       MOCLDY    75  72  90 CALM      30.03S
BIRMINGHAM     CLOUDY    78  74  87 CALM      30.04F
CHATTANOOGA    CLOUDY    78  72  81 E3        30.02F
DALTON         MOCLDY    73  73 100 CALM      30.03F
GADSDEN        CLOUDY    75  70  83 CALM      30.02S
GOLDEN TRNGL   MOCLDY    75  70  83 CALM      30.00S
HALEYVILLE     FAIR      74  74 100 CALM      30.07S FOG
JACKSON TN     CLEAR     73  70  90 CALM      30.02S
MEMPHIS        CLEAR     77  71  82 CALM      30.01S
NASHVILLE      MOCLDY    79  69  71 CALM      30.03S
OXFORD MS      FAIR      72  70  94 CALM      30.04S
ROME           MOCLDY    75  73  93 CALM      30.01F
SAVANNAH       CLEAR     73  32  21 CALM      30.03R
TUPELO         CLEAR     75  72  90 CALM      30.01F
TUSCALOOSA     CLOUDY    78  75  90 CALM      30.01S
$$

...GULF COAST WEATHER...

CITY           SKY/WX    TMP DP  RH WIND       PRES   REMARKS
GULFPORT       CLOUDY    79  74  84 W3        30.00F
PASCAGOULA     CLOUDY    75  74  96 CALM      30.01S
MOBILE         CLOUDY    78  75  90 SW5       30.03R
GULF SHORES    MOCLDY    76  74  96 CALM      30.01S
DESTIN         PTCLDY    85  74  69 VRB5      30.00S HX  92
PANAMA CITY    PTCLDY    83  75  76 W10       30.00S HX  91
APPALACHICOLA  MOCLDY    79  74  84 CALM      30.01S
$$



USA.gov is the U.S. government's official web portal to all federal, state and local government web resources and services.